GPS BIII-2 (44506 NORAD) Tracking and Keplerian Element Data

This shows tracking and keplerian element data for the satellite.

Feedback or suggestion? Click here.




ElementValue
Catalog44506
NameGPS BIII-2
Epoch Orbit4006
Epoch Day34.30866705
Epoch Year2025
RAAN350.9372
Inclination55.8151
Eccentricity0.0048727
Argument of Perigee194.6399
Mean Anonmoly336.8202
Mean Motion2.0055953
Decay Rate-8E-07
L11 44506U 19056A 25034.30866705 -.00000080 00000+0 00000+0 0 9996
L22 44506 55.8151 350.9372 0048727 194.6399 336.8202 2.00559530 40067



Live tracking and technical data element details for GPS BIII-2 (NORAD 44506). GPS BIII-2 can be tracked NOW for your location showing map with azimuth and elevation plus other details from your city location.







IsCatalogInMostPopularTable: catalog: 44506, numindb: 305
Update: records affected: 1



GetName: 44506 GPS BIII-2

Hit Count: updated at: Thu, 15 May 2025 20:15:01 GMT